TimeCST,TemperatureF,Dew PointF,Humidity,Sea Level PressureIn,VisibilityMPH,Wind Direction,Wind SpeedMPH,Gust SpeedMPH,PrecipitationIn,Events,Conditions,WindDirDegrees,DateUTC
12:54 AM,37.9,28.9,70,29.94,10.0,West,19.6,29.9,N/A,,Overcast,280,2012-11-23 06:54:00
1:28 AM,37.4,28.4,70,29.93,10.0,West,17.3,21.9,N/A,,Partly Cloudy,280,2012-11-23 07:28:00
1:54 AM,37.9,28.9,70,29.94,10.0,West,11.5,-,N/A,,Partly Cloudy,280,2012-11-23 07:54:00
2:54 AM,37.9,28.9,70,29.94,10.0,West,13.8,-,N/A,,Overcast,260,2012-11-23 08:54:00
3:54 AM,37.9,27.0,65,29.93,10.0,West,24.2,32.2,N/A,,Overcast,280,2012-11-23 09:54:00
4:54 AM,35.1,23.0,61,29.96,10.0,WNW,18.4,25.3,N/A,,Overcast,300,2012-11-23 10:54:00
5:54 AM,33.8,21.2,60,29.95,10.0,WNW,24.2,32.2,N/A,,Overcast,300,2012-11-23 11:54:00
6:29 AM,30.2,19.4,64,29.98,10.0,NW,27.6,35.7,N/A,,Overcast,310,2012-11-23 12:29:00
6:54 AM,28.0,16.0,61,30.01,10.0,WNW,23.0,38.0,N/A,,Scattered Clouds,300,2012-11-23 12:54:00
7:54 AM,28.0,16.0,61,30.04,10.0,WNW,21.9,36.8,N/A,,Overcast,300,2012-11-23 13:54:00
8:54 AM,28.9,16.0,58,30.07,10.0,WNW,23.0,34.5,0.00,,Overcast,290,2012-11-23 14:54:00
9:54 AM,28.9,15.1,56,30.11,10.0,NW,20.7,35.7,0.00,Snow,Light Snow,310,2012-11-23 15:54:00
10:54 AM,28.9,17.1,61,30.13,10.0,WNW,21.9,28.8,0.00,Snow,Light Snow,300,2012-11-23 16:54:00
11:54 AM,28.9,15.1,56,30.15,10.0,WNW,27.6,34.5,0.00,,Overcast,300,2012-11-23 17:54:00
12:54 PM,30.9,16.0,54,30.16,10.0,WNW,19.6,31.1,N/A,,Overcast,300,2012-11-23 18:54:00
1:54 PM,28.9,15.1,56,30.17,10.0,NW,23.0,29.9,N/A,,Overcast,310,2012-11-23 19:54:00
2:54 PM,30.0,15.1,54,30.19,10.0,WNW,21.9,31.1,N/A,,Mostly Cloudy,300,2012-11-23 20:54:00
3:54 PM,28.9,15.1,56,30.22,10.0,WNW,16.1,25.3,N/A,,Mostly Cloudy,300,2012-11-23 21:54:00
4:54 PM,28.0,16.0,61,30.24,10.0,NW,16.1,-,N/A,,Mostly Cloudy,310,2012-11-23 22:54:00
5:54 PM,28.0,16.0,61,30.27,10.0,NW,13.8,25.3,N/A,,Overcast,310,2012-11-23 23:54:00
6:54 PM,28.0,16.0,61,30.28,10.0,NW,11.5,-,N/A,,Overcast,310,2012-11-24 00:54:00
7:54 PM,28.0,16.0,61,30.27,10.0,NNW,15.0,21.9,N/A,,Overcast,330,2012-11-24 01:54:00
8:54 PM,28.0,17.1,63,30.27,10.0,NW,11.5,-,N/A,,Overcast,320,2012-11-24 02:54:00
9:54 PM,28.0,16.0,61,30.27,10.0,NNW,12.7,-,N/A,,Overcast,330,2012-11-24 03:54:00
10:26 PM,28.4,15.8,59,30.23,10.0,NW,11.5,-,N/A,,Overcast,320,2012-11-24 04:26:00
10:54 PM,28.0,16.0,61,30.27,10.0,NW,12.7,19.6,N/A,,Overcast,320,2012-11-24 04:54:00
11:54 PM,27.0,16.0,63,30.28,10.0,NNW,12.7,23.0,N/A,,Overcast,330,2012-11-24 05:54:00